SBIRS GEO-3 (USA 282)

Last updated on Thu Nov 21 2024 00:02:43 GMT+0000 (Coordinated Universal Time)

1 43162U 18009A 24325.45340025 .00000128 00000+0 00000+0 0 9992 2 43162 2.2089 342.4360 0002527 265.6656 175.6937 1.00272505 25099
UTC large
Height (km)
Speed (km/s)
/
Latitude / Longitude
Inclination (degrees)
Orbital Period (minutes)
Azimuth
Elevation
Range (km)
Doppler Factor

Next 0 passes for location: London (51.5072 / 0.1276)

Sorry there are no passes over London.